AZU2896 SBFL-SBCF

Flight info

Callsign AZU2896
Flight time 1h 21m
Altitude 37000
Route UBROS UM540 ANISE UZ23 KIBAP
Aircraft A20N/M-SDE2E3FGHIJ1RWXY/LB1

Departure

Time 2026-04-21 22:49
Airport Hercílio Luz International Airport (SBFL)

Arrival

Time 2026-04-22 00:10
Airport Tancredo Neves International Airport (SBCF)
Time Latitude Longitude Altitude Speed Heading
2026-04-21 22:11 -27.67289 -48.54544 24 ft 0 kts 213°
2026-04-21 22:33 -27.67281 -48.54539 24 ft 2 kts 210°
2026-04-21 22:33 -27.67267 -48.54529 29 ft 2 kts 208°
2026-04-21 22:33 -27.67252 -48.54522 27 ft 2 kts 188°
2026-04-21 22:34 -27.67237 -48.54527 27 ft 2 kts 125°
2026-04-21 22:34 -27.67234 -48.54532 28 ft 0 kts 121°
2026-04-21 22:39 -27.67235 -48.54529 28 ft 1 kts 121°
2026-04-21 22:39 -27.67247 -48.54507 26 ft 5 kts 121°
2026-04-21 22:40 -27.67269 -48.54465 25 ft 7 kts 120°
2026-04-21 22:40 -27.67293 -48.54421 26 ft 7 kts 121°
2026-04-21 22:40 -27.67288 -48.54373 27 ft 7 kts 51°
2026-04-21 22:40 -27.67249 -48.54347 24 ft 7 kts 30°
2026-04-21 22:41 -27.67213 -48.54317 27 ft 6 kts 53°
2026-04-21 22:41 -27.67217 -48.54286 26 ft 4 kts 114°
2026-04-21 22:41 -27.67229 -48.54261 25 ft 4 kts 121°
2026-04-21 22:41 -27.67245 -48.54230 28 ft 6 kts 120°
2026-04-21 22:42 -27.67267 -48.54189 24 ft 6 kts 121°
2026-04-21 22:42 -27.67289 -48.54147 25 ft 7 kts 121°
2026-04-21 22:42 -27.67313 -48.54101 28 ft 7 kts 120°
2026-04-21 22:42 -27.67339 -48.54053 26 ft 7 kts 121°
2026-04-21 22:43 -27.67366 -48.54003 26 ft 8 kts 122°
2026-04-21 22:43 -27.67395 -48.53950 27 ft 8 kts 121°
2026-04-21 22:43 -27.67425 -48.53895 25 ft 8 kts 121°
2026-04-21 22:43 -27.67456 -48.53837 25 ft 9 kts 121°
2026-04-21 22:44 -27.67486 -48.53780 24 ft 9 kts 121°
2026-04-21 22:44 -27.67518 -48.53721 27 ft 9 kts 121°
2026-04-21 22:44 -27.67550 -48.53661 26 ft 9 kts 121°
2026-04-21 22:44 -27.67583 -48.53599 26 ft 9 kts 120°
2026-04-21 22:45 -27.67617 -48.53537 26 ft 9 kts 123°
2026-04-21 22:45 -27.67651 -48.53476 24 ft 9 kts 122°
2026-04-21 22:45 -27.67686 -48.53411 25 ft 10 kts 121°
2026-04-21 22:45 -27.67720 -48.53347 24 ft 10 kts 121°
2026-04-21 22:46 -27.67754 -48.53280 26 ft 10 kts 117°
2026-04-21 22:46 -27.67737 -48.53209 25 ft 12 kts 31°
2026-04-21 22:46 -27.67711 -48.53189 24 ft 0 kts 33°
2026-04-21 22:47 -27.67704 -48.53184 24 ft 5 kts 33°
2026-04-21 22:47 -27.67643 -48.53144 26 ft 12 kts 19°
2026-04-21 22:47 -27.67615 -48.53182 26 ft 0 kts 301°
2026-04-21 22:48 -27.67614 -48.53184 25 ft 5 kts 301°
2026-04-21 22:48 -27.67438 -48.53508 22 ft 91 kts 301°
2026-04-21 22:49 -27.66991 -48.54339 56 ft 152 kts 300°
2026-04-21 22:49 -27.66456 -48.55363 795 ft 149 kts 302°
2026-04-21 22:49 -27.65927 -48.56351 1560 ft 145 kts 302°
2026-04-21 22:49 -27.65372 -48.57356 2093 ft 157 kts 303°
2026-04-21 22:50 -27.64756 -48.58441 2617 ft 170 kts 304°
2026-04-21 22:50 -27.63872 -48.59363 3072 ft 186 kts 336°
2026-04-21 22:50 -27.62538 -48.59514 3462 ft 205 kts 13°
2026-04-21 22:50 -27.61257 -48.58716 3968 ft 216 kts 39°
2026-04-21 22:51 -27.60102 -48.57558 4406 ft 236 kts 41°
2026-04-21 22:51 -27.58780 -48.56342 4968 ft 249 kts 36°
2026-04-21 22:51 -27.57331 -48.55222 5657 ft 259 kts 32°
2026-04-21 22:51 -27.55756 -48.54140 5937 ft 268 kts 31°
2026-04-21 22:52 -27.54141 -48.53007 6355 ft 280 kts 35°
2026-04-21 22:52 -27.52587 -48.51680 7232 ft 282 kts 38°
2026-04-21 22:52 -27.51012 -48.50321 8014 ft 287 kts 37°
2026-04-21 22:52 -27.49382 -48.48990 8823 ft 291 kts 35°
2026-04-21 22:53 -27.47705 -48.47688 9609 ft 296 kts 34°
2026-04-21 22:53 -27.45977 -48.46385 10346 ft 302 kts 34°
2026-04-21 22:53 -27.44156 -48.45030 10641 ft 324 kts 33°
2026-04-21 22:53 -27.42229 -48.43603 10878 ft 345 kts 33°
2026-04-21 22:54 -27.40192 -48.42096 11463 ft 352 kts 33°
2026-04-21 22:54 -27.38139 -48.40575 12214 ft 355 kts 33°
2026-04-21 22:54 -27.36059 -48.39035 12932 ft 359 kts 33°
2026-04-21 22:54 -27.33956 -48.37477 13659 ft 363 kts 33°
2026-04-21 22:55 -27.31833 -48.35905 14309 ft 367 kts 33°
2026-04-21 22:55 -27.29683 -48.34313 14949 ft 371 kts 33°
2026-04-21 22:55 -27.27541 -48.32729 15560 ft 375 kts 33°
2026-04-21 22:55 -27.25351 -48.31109 16172 ft 379 kts 33°
2026-04-21 22:56 -27.23129 -48.29466 16775 ft 383 kts 33°
2026-04-21 22:56 -27.20889 -48.27812 17368 ft 387 kts 32°
2026-04-21 22:56 -27.18625 -48.26140 17979 ft 391 kts 32°
2026-04-21 22:56 -27.16371 -48.24476 18530 ft 394 kts 32°
2026-04-21 22:57 -27.14069 -48.22778 19065 ft 397 kts 32°
2026-04-21 22:57 -27.11746 -48.21065 19603 ft 400 kts 32°
2026-04-21 22:57 -27.09409 -48.19342 20138 ft 402 kts 32°
2026-04-21 22:57 -27.07056 -48.17609 20664 ft 405 kts 32°
2026-04-21 22:58 -27.04708 -48.15881 21166 ft 408 kts 32°
2026-04-21 22:58 -27.02316 -48.14120 21696 ft 411 kts 32°
2026-04-21 22:58 -26.99911 -48.12351 22199 ft 414 kts 32°
2026-04-21 22:58 -26.97492 -48.10573 22724 ft 417 kts 32°
2026-04-21 22:59 -26.95051 -48.08780 23221 ft 420 kts 32°
2026-04-21 22:59 -26.92622 -48.06996 23694 ft 423 kts 32°
2026-04-21 22:59 -26.90117 -48.05217 24099 ft 426 kts 28°
2026-04-21 22:59 -26.87459 -48.03747 24499 ft 427 kts 21°
2026-04-21 23:00 -26.84654 -48.02614 24891 ft 429 kts 17°
2026-04-21 23:00 -26.81809 -48.01539 25270 ft 432 kts 17°
2026-04-21 23:00 -26.78937 -48.00445 25659 ft 435 kts 17°
2026-04-21 23:00 -26.76103 -47.99362 26029 ft 438 kts 17°
2026-04-21 23:01 -26.73206 -47.98256 26385 ft 440 kts 17°
2026-04-21 23:01 -26.70291 -47.97140 26742 ft 443 kts 17°
2026-04-21 23:01 -26.67356 -47.96017 27086 ft 446 kts 17°
2026-04-21 23:01 -26.64411 -47.94892 27451 ft 448 kts 17°
2026-04-21 23:02 -26.61447 -47.93761 27762 ft 451 kts 17°
2026-04-21 23:02 -26.58505 -47.92639 28079 ft 454 kts 18°
2026-04-21 23:02 -26.55506 -47.91496 28398 ft 457 kts 18°
2026-04-21 23:02 -26.52486 -47.90346 28706 ft 459 kts 18°
2026-04-21 23:03 -26.49452 -47.89190 29016 ft 462 kts 18°
2026-04-21 23:03 -26.46399 -47.88029 29320 ft 464 kts 18°
2026-04-21 23:03 -26.43331 -47.86862 29610 ft 466 kts 17°
2026-04-21 23:03 -26.40243 -47.85689 29880 ft 469 kts 18°
2026-04-21 23:04 -26.37143 -47.84511 30179 ft 471 kts 18°
2026-04-21 23:04 -26.34056 -47.83340 30414 ft 474 kts 17°
2026-04-21 23:04 -26.30917 -47.82149 30638 ft 477 kts 17°
2026-04-21 23:04 -26.27765 -47.80954 30853 ft 480 kts 17°
2026-04-21 23:05 -26.24589 -47.79750 31108 ft 482 kts 17°
2026-04-21 23:05 -26.21404 -47.78544 31390 ft 484 kts 17°
2026-04-21 23:05 -26.18253 -47.77351 31687 ft 485 kts 17°
2026-04-21 23:05 -26.15072 -47.76101 31974 ft 486 kts 20°
2026-04-21 23:06 -26.11994 -47.74508 32266 ft 488 kts 27°
2026-04-21 23:06 -26.09088 -47.72536 32560 ft 490 kts 34°
2026-04-21 23:06 -26.06312 -47.70318 32824 ft 491 kts 35°
2026-04-21 23:06 -26.03528 -47.68093 33092 ft 492 kts 34°
2026-04-21 23:07 -26.00735 -47.65870 33366 ft 493 kts 34°
2026-04-21 23:07 -25.97965 -47.63670 33635 ft 494 kts 34°
2026-04-21 23:07 -25.95164 -47.61449 33898 ft 494 kts 34°
2026-04-21 23:07 -25.92357 -47.59226 34148 ft 495 kts 34°
2026-04-21 23:08 -25.89546 -47.56999 34394 ft 495 kts 34°
2026-04-21 23:08 -25.86741 -47.54779 34632 ft 495 kts 34°
2026-04-21 23:08 -25.83934 -47.52558 34855 ft 495 kts 34°
2026-04-21 23:08 -25.81153 -47.50360 35058 ft 495 kts 34°
2026-04-21 23:09 -25.78332 -47.48130 35284 ft 495 kts 34°
2026-04-21 23:09 -25.75518 -47.45908 35502 ft 495 kts 34°
2026-04-21 23:09 -25.72707 -47.43690 35704 ft 496 kts 34°
2026-04-21 23:09 -25.69926 -47.41496 35897 ft 496 kts 34°
2026-04-21 23:10 -25.67097 -47.39266 36107 ft 496 kts 34°
2026-04-21 23:10 -25.64274 -47.37042 36309 ft 496 kts 34°
2026-04-21 23:10 -25.61491 -47.34851 36488 ft 496 kts 34°
2026-04-21 23:10 -25.58666 -47.32628 36659 ft 497 kts 34°
2026-04-21 23:11 -25.55843 -47.30408 36850 ft 497 kts 34°
2026-04-21 23:11 -25.53021 -47.28190 37031 ft 497 kts 34°
2026-04-21 23:11 -25.47381 -47.23760 37097 ft 496 kts 34°
2026-04-21 23:12 -25.41778 -47.19366 37101 ft 496 kts 34°
2026-04-21 23:12 -25.36137 -47.14947 37100 ft 496 kts 34°
2026-04-21 23:13 -25.30496 -47.10532 37102 ft 496 kts 34°
2026-04-21 23:13 -25.24888 -47.06149 37086 ft 497 kts 34°
2026-04-21 23:14 -25.19234 -47.01738 37100 ft 497 kts 34°
2026-04-21 23:14 -25.13542 -46.97383 37100 ft 497 kts 30°
2026-04-21 23:15 -25.07640 -46.93518 37099 ft 497 kts 29°
2026-04-21 23:15 -25.01687 -46.89613 37101 ft 497 kts 29°
2026-04-21 23:16 -24.95732 -46.85711 37103 ft 497 kts 29°
2026-04-21 23:16 -24.89777 -46.81814 37107 ft 497 kts 29°
2026-04-21 23:17 -24.83858 -46.77946 37109 ft 498 kts 29°
2026-04-21 23:17 -24.77896 -46.74054 37101 ft 498 kts 29°
2026-04-21 23:18 -24.71932 -46.70165 37101 ft 498 kts 29°
2026-04-21 23:18 -24.66002 -46.66303 37104 ft 498 kts 29°
2026-04-21 23:19 -24.60809 -46.63515 37101 ft 495 kts 18°
2026-04-21 23:19 -24.54223 -46.61691 37093 ft 489 kts
2026-04-21 23:20 -24.47470 -46.60791 37097 ft 488 kts
2026-04-21 23:20 -24.40721 -46.59868 37095 ft 489 kts
2026-04-21 23:21 -24.33967 -46.58943 37094 ft 489 kts
2026-04-21 23:21 -24.27208 -46.58018 37093 ft 489 kts
2026-04-21 23:22 -24.20479 -46.57100 37098 ft 489 kts
2026-04-21 23:22 -24.13715 -46.56178 37098 ft 490 kts
2026-04-21 23:23 -24.06943 -46.55255 37111 ft 490 kts
2026-04-21 23:23 -24.00167 -46.54332 37114 ft 491 kts
2026-04-21 23:24 -23.93384 -46.53408 37131 ft 491 kts
2026-04-21 23:24 -23.86634 -46.52122 37141 ft 494 kts 13°
2026-04-21 23:25 -23.80279 -46.50217 37155 ft 495 kts 13°
2026-04-21 23:25 -23.73621 -46.48247 37168 ft 495 kts 13°
2026-04-21 23:26 -23.66955 -46.46286 37171 ft 496 kts 13°
2026-04-21 23:26 -23.60287 -46.44326 37175 ft 496 kts 13°
2026-04-21 23:27 -23.53652 -46.42380 37187 ft 496 kts 13°
2026-04-21 23:27 -23.46972 -46.40420 37160 ft 497 kts 12°
2026-04-21 23:28 -23.40242 -46.38433 37186 ft 504 kts 12°
2026-04-21 23:28 -23.33429 -46.36732 37189 ft 501 kts
2026-04-21 23:29 -23.26644 -46.35184 37175 ft 501 kts
2026-04-21 23:29 -23.19820 -46.33582 37149 ft 501 kts
2026-04-21 23:30 -23.13006 -46.31961 37139 ft 501 kts
2026-04-21 23:30 -23.06202 -46.30341 37127 ft 501 kts
2026-04-21 23:31 -22.99387 -46.28723 37126 ft 501 kts
2026-04-21 23:31 -22.92601 -46.27113 37131 ft 501 kts
2026-04-21 23:32 -22.85788 -46.25497 37133 ft 500 kts
2026-04-21 23:32 -22.78997 -46.23767 37136 ft 501 kts 15°
2026-04-21 23:33 -22.72646 -46.20722 37133 ft 504 kts 30°
2026-04-21 23:33 -22.66950 -46.16285 37138 ft 504 kts 40°
2026-04-21 23:34 -22.61513 -46.11451 37127 ft 505 kts 39°
2026-04-21 23:34 -22.56070 -46.06644 37135 ft 505 kts 39°
2026-04-21 23:35 -22.50654 -46.01867 37135 ft 505 kts 39°
2026-04-21 23:35 -22.45226 -45.97083 37134 ft 505 kts 39°
2026-04-21 23:36 -22.39763 -45.92272 37132 ft 504 kts 39°
2026-04-21 23:36 -22.34313 -45.87479 37128 ft 504 kts 39°
2026-04-21 23:37 -22.28895 -45.82717 37126 ft 504 kts 39°
2026-04-21 23:37 -22.23435 -45.77969 37124 ft 504 kts 39°
2026-04-21 23:38 -22.17970 -45.73258 37119 ft 504 kts 39°
2026-04-21 23:38 -22.12528 -45.68563 37112 ft 501 kts 39°
2026-04-21 23:39 -22.07076 -45.63861 37106 ft 502 kts 39°
2026-04-21 23:39 -22.01616 -45.59156 37115 ft 501 kts 39°
2026-04-21 23:40 -21.96168 -45.54466 37110 ft 501 kts 39°
2026-04-21 23:40 -21.90753 -45.49810 37117 ft 500 kts 39°
2026-04-21 23:41 -21.85300 -45.45124 37107 ft 500 kts 39°
2026-04-21 23:41 -21.79851 -45.40448 37110 ft 500 kts 39°
2026-04-21 23:42 -21.74443 -45.35812 37107 ft 499 kts 39°
2026-04-21 23:42 -21.69004 -45.31153 37108 ft 499 kts 39°
2026-04-21 23:43 -21.63566 -45.26499 37109 ft 499 kts 39°
2026-04-21 23:43 -21.58156 -45.21876 37106 ft 498 kts 39°
2026-04-21 23:44 -21.52721 -45.17234 37107 ft 498 kts 39°
2026-04-21 23:44 -21.47316 -45.12623 37110 ft 497 kts 39°
2026-04-21 23:45 -21.39164 -45.05677 37105 ft 497 kts 39°
2026-04-21 23:46 -21.33749 -45.01068 37103 ft 497 kts 39°
2026-04-21 23:46 -21.28348 -44.96476 37106 ft 496 kts 39°
2026-04-21 23:47 -21.22933 -44.91876 37107 ft 496 kts 39°
2026-04-21 23:47 -21.17526 -44.87288 37106 ft 496 kts 39°
2026-04-21 23:47 -21.14823 -44.84996 36937 ft 494 kts 39°
2026-04-21 23:48 -21.12123 -44.82707 36487 ft 493 kts 38°
2026-04-21 23:48 -21.09456 -44.80447 35841 ft 494 kts 38°
2026-04-21 23:48 -21.06748 -44.78153 35097 ft 496 kts 38°
2026-04-21 23:48 -21.04020 -44.75855 34308 ft 499 kts 37°
2026-04-21 23:49 -21.01208 -44.73653 33415 ft 501 kts 34°
2026-04-21 23:49 -20.98377 -44.71528 32510 ft 503 kts 34°
2026-04-21 23:49 -20.95499 -44.69375 31620 ft 505 kts 34°
2026-04-21 23:49 -20.92619 -44.67205 30761 ft 506 kts 34°
2026-04-21 23:50 -20.89741 -44.65023 29794 ft 507 kts 34°
2026-04-21 23:50 -20.86860 -44.62831 28977 ft 504 kts 34°
2026-04-21 23:50 -20.84025 -44.60669 28406 ft 497 kts 34°
2026-04-21 23:50 -20.81199 -44.58662 27852 ft 488 kts 28°
2026-04-21 23:51 -20.78174 -44.57065 27279 ft 480 kts 21°
2026-04-21 23:51 -20.75042 -44.55926 26721 ft 472 kts 13°
2026-04-21 23:51 -20.71877 -44.55076 26168 ft 466 kts 13°
2026-04-21 23:51 -20.68741 -44.54231 25613 ft 460 kts 13°
2026-04-21 23:52 -20.65656 -44.53394 25054 ft 455 kts 13°
2026-04-21 23:52 -20.62638 -44.52575 24503 ft 451 kts 13°
2026-04-21 23:52 -20.59614 -44.51754 23965 ft 446 kts 13°
2026-04-21 23:52 -20.56619 -44.50943 23376 ft 441 kts 13°
2026-04-21 23:53 -20.53664 -44.50142 22881 ft 434 kts 13°
2026-04-21 23:53 -20.50761 -44.49357 22362 ft 427 kts 14°
2026-04-21 23:53 -20.47897 -44.48582 21847 ft 421 kts 14°
2026-04-21 23:53 -20.45068 -44.47817 21329 ft 416 kts 14°
2026-04-21 23:54 -20.42280 -44.47063 20819 ft 411 kts 14°
2026-04-21 23:54 -20.39518 -44.46316 20315 ft 407 kts 14°
2026-04-21 23:54 -20.36815 -44.45586 19807 ft 404 kts 14°
2026-04-21 23:54 -20.34104 -44.44852 19266 ft 401 kts 14°
2026-04-21 23:55 -20.31414 -44.44120 18785 ft 397 kts 15°
2026-04-21 23:55 -20.28740 -44.43392 18282 ft 395 kts 15°
2026-04-21 23:55 -20.26085 -44.42669 17768 ft 391 kts 15°
2026-04-21 23:55 -20.23467 -44.41957 17277 ft 386 kts 15°
2026-04-21 23:56 -20.20870 -44.41251 16786 ft 383 kts 15°
2026-04-21 23:56 -20.18327 -44.40559 16306 ft 379 kts 15°
2026-04-21 23:56 -20.15777 -44.39867 15822 ft 376 kts 15°
2026-04-21 23:56 -20.13250 -44.39180 15341 ft 374 kts 15°
2026-04-21 23:57 -20.10730 -44.38496 14867 ft 371 kts 15°
2026-04-21 23:57 -20.08236 -44.37820 14380 ft 369 kts 15°
2026-04-21 23:57 -20.05745 -44.37144 13886 ft 367 kts 15°
2026-04-21 23:57 -20.03301 -44.36481 13419 ft 364 kts 15°
2026-04-21 23:58 -20.00858 -44.35820 12957 ft 360 kts 14°
2026-04-21 23:58 -19.98441 -44.35166 12494 ft 356 kts 14°
2026-04-21 23:58 -19.96046 -44.34517 12039 ft 353 kts 14°
2026-04-21 23:58 -19.93702 -44.33883 11593 ft 350 kts 14°
2026-04-21 23:59 -19.91352 -44.33247 11210 ft 345 kts 14°
2026-04-21 23:59 -19.89032 -44.32619 10975 ft 347 kts 14°
2026-04-21 23:59 -19.86662 -44.31979 10784 ft 352 kts 14°
2026-04-21 23:59 -19.84328 -44.31348 10585 ft 349 kts 14°
2026-04-22 00:00 -19.81977 -44.30713 10288 ft 347 kts 14°
2026-04-22 00:00 -19.79647 -44.30084 10006 ft 344 kts 14°
2026-04-22 00:00 -19.77641 -44.29522 9895 ft 333 kts 17°
2026-04-22 00:00 -19.75552 -44.28627 9769 ft 320 kts 27°
2026-04-22 00:01 -19.74010 -44.27691 9670 ft 310 kts 31°
2026-04-22 00:01 -19.72188 -44.26532 9417 ft 302 kts 31°
2026-04-22 00:01 -19.70381 -44.25396 8991 ft 300 kts 31°
2026-04-22 00:01 -19.68587 -44.24272 8584 ft 299 kts 31°
2026-04-22 00:02 -19.66799 -44.23154 8260 ft 295 kts 31°
2026-04-22 00:02 -19.65079 -44.22091 8139 ft 280 kts 28°
2026-04-22 00:02 -19.63383 -44.21185 8048 ft 268 kts 27°
2026-04-22 00:02 -19.61748 -44.20311 7957 ft 256 kts 27°
2026-04-22 00:03 -19.60713 -44.19756 7886 ft 248 kts 27°
2026-04-22 00:03 -19.58739 -44.18696 7745 ft 232 kts 27°
2026-04-22 00:03 -19.57326 -44.17936 7594 ft 223 kts 28°
2026-04-22 00:03 -19.56051 -44.17022 7235 ft 220 kts 44°
2026-04-22 00:04 -19.55352 -44.16242 6959 ft 219 kts 51°
2026-04-22 00:04 -19.54073 -44.14659 6741 ft 200 kts 50°
2026-04-22 00:04 -19.53194 -44.13596 6614 ft 184 kts 50°
2026-04-22 00:04 -19.52382 -44.12619 6477 ft 172 kts 50°
2026-04-22 00:05 -19.51593 -44.11669 6176 ft 170 kts 50°
2026-04-22 00:05 -19.50846 -44.10719 5894 ft 166 kts 61°
2026-04-22 00:05 -19.50590 -44.09964 5836 ft 160 kts 85°
2026-04-22 00:05 -19.50955 -44.08586 5589 ft 143 kts 126°
2026-04-22 00:06 -19.51620 -44.07798 5432 ft 144 kts 137°
2026-04-22 00:06 -19.52375 -44.07106 5260 ft 142 kts 139°
2026-04-22 00:06 -19.53123 -44.06416 5093 ft 143 kts 138°
2026-04-22 00:06 -19.53618 -44.05955 4973 ft 143 kts 139°
2026-04-22 00:07 -19.54351 -44.05275 4810 ft 142 kts 138°
2026-04-22 00:07 -19.55089 -44.04588 4613 ft 141 kts 138°
2026-04-22 00:07 -19.55827 -44.03901 4433 ft 141 kts 138°
2026-04-22 00:07 -19.56561 -44.03219 4251 ft 140 kts 138°
2026-04-22 00:08 -19.57292 -44.02539 4079 ft 140 kts 137°
2026-04-22 00:08 -19.58020 -44.01861 3898 ft 139 kts 138°
2026-04-22 00:08 -19.58749 -44.01183 3729 ft 139 kts 137°
2026-04-22 00:08 -19.59466 -44.00514 3553 ft 137 kts 137°
2026-04-22 00:09 -19.60186 -43.99845 3389 ft 138 kts 137°
2026-04-22 00:09 -19.60914 -43.99168 3199 ft 139 kts 137°
2026-04-22 00:09 -19.61638 -43.98488 3016 ft 139 kts 136°
2026-04-22 00:09 -19.62358 -43.97812 2842 ft 138 kts 136°
2026-04-22 00:10 -19.63015 -43.97204 2807 ft 99 kts 139°
2026-04-22 00:10 -19.63392 -43.96856 2799 ft 47 kts 138°
2026-04-22 00:10 -19.63555 -43.96665 2802 ft 26 kts 118°
2026-04-22 00:10 -19.63612 -43.96523 2800 ft 18 kts 109°
2026-04-22 00:11 -19.63626 -43.96478 2802 ft 1 kts 107°
2026-04-22 00:11 -19.63632 -43.96457 2800 ft 6 kts 107°
2026-04-22 00:11 -19.63646 -43.96407 2801 ft 7 kts 96°
2026-04-22 00:11 -19.63622 -43.96366 2802 ft 7 kts 33°
2026-04-22 00:12 -19.63577 -43.96338 2804 ft 8 kts 28°
2026-04-22 00:12 -19.63524 -43.96307 2802 ft 9 kts 28°
2026-04-22 00:12 -19.63462 -43.96290 2801 ft 9 kts 342°
2026-04-22 00:12 -19.63430 -43.96342 2804 ft 9 kts 294°
2026-04-22 00:13 -19.63400 -43.96408 2804 ft 11 kts 302°
2026-04-22 00:13 -19.63348 -43.96469 2803 ft 12 kts 320°
2026-04-22 00:13 -19.63282 -43.96529 2801 ft 13 kts 319°
2026-04-22 00:13 -19.63211 -43.96595 2800 ft 14 kts 318°
2026-04-22 00:14 -19.63134 -43.96666 2803 ft 15 kts 320°
2026-04-22 00:14 -19.63062 -43.96695 2800 ft 9 kts 53°
2026-04-22 00:14 -19.63027 -43.96646 2804 ft 7 kts 50°
2026-04-22 00:14 -19.63015 -43.96632 2804 ft 0 kts 48°